ONEWEB-0133 (47279 NORAD) Tracking and Keplerian Element Data

This shows tracking and keplerian element data for the satellite.

Feedback or suggestion? Click here.




ElementValue
Catalog47279
NameONEWEB-0133
Epoch Orbit183
Epoch Day20.91667824
Epoch Year2021
RAAN27.9104
Inclination87.4696
Eccentricity0.0013877
Argument of Perigee142.8124
Mean Anonmoly185.1349
Mean Motion15.09496003
Decay Rate-0.01361695
L11 47279U 20100X 21020.91667824 -.01361695 00000-0 -92210-1 0 9998
L22 47279 87.4696 27.9104 0013877 142.8124 185.1349 15.09496003 1832

Live tracking and technical data element details for ONEWEB-0133 (NORAD 47279). ONEWEB-0133 can be tracked NOW for your location showing map with azimuth and elevation plus other details from your city location.

Track the satellite on the map from your city or location and see movement details for azimuth, elevation, latitude, longitude, range, height, and movement on the map or in text.







IsCatalogInMostPopularTable: catalog: 47279, numindb: 16
Update: records affected: 1



GetName: 47279 ONEWEB-0133

Hit Count: updated at: Fri, 22 Jan 2021 15:20:24 GMT